OBBIOTBD

Guest
Details From OBBI - BAHRAIN INTL
To OTBD - DOHA INTL
Flight Number -
Tags generated
Created
Modified
Stats Distance 79 nm / 146 km
Max Altitude 200 ft / 61 m
Waypoints 3
Social Downloads 0
Likes 0
Share VATSIM

Download

Looking for another format? Having issues loading an existing format? Contact us
Advertisement - Login to hide

Notes

Basic altitude profile: - Ascent Rate: 2500ft/min - Ascent Speed: 250kts - Cruise Altitude: 10000ft - Cruise Speed: 420kts - Descent Rate: 1500ft/min - Descent Speed: 250kts Options: - Use NATs: yes - Use PACOTS: yes - Use low airways: yes - Use high airways: yes

Route

OBBI BAH OTBD

ID Type Via Altitude Latitude Longitude Leg Dist Tot Dist Heading (true) Name
O OBBI APT - 0 ft / 0 m 26.26784˚ 50.63710˚ - 0 nm - BAHRAIN INTL
BAH VOR - 200 ft / 61 m 26.26419˚ 50.64885˚ 0 nm 0 nm 109° / 109° BAHRAIN VOR-DME
O OTBD APT - 0 ft / 0 m 25.26106˚ 51.56500˚ 78 nm 78 nm 140° / 141° DOHA INTL

Altitude Profile

Advertisement - Login to hide

OBBI

Details ICAO OBBI (BAH)
Name BAHRAIN INTL
Region Bahrain
Timezone Asia/Bahrain (UTC+3.0)
Stats Elevation 6 ft / 2 m (AMSL)
Location 26.267837° 50.637095°
Runways 2
Magnetic Variation 2.762° E

METAR

OBBI 150700Z 16008KT 140V210 CAVOK 22/12 Q1017 NOSIG

Decode

TAF

TAF OBBI 150500Z 1506/1612 17010KT 8000 NSC BECMG 1521/1600 31015KT 4000 HZ FEW006 PROB30 TEMPO 1600/1606 2000 BKN004

Decode

Departure Runways

ID Width Length Bearing (true) Bearing (mag) Surface Threshold Offset Overrun Length
12L 197 ft / 60 m 12,893 ft / 3,930 m 122.74° 119.98° Asphalt 1,000 ft / 305 m 0 ft / 0 m
12R 148 ft / 45 m 8,303 ft / 2,531 m 122.76° 120.00° Asphalt 1,000 ft / 305 m 0 ft / 0 m
30L 148 ft / 45 m 8,303 ft / 2,531 m 302.77° 300.01° Asphalt 395 ft / 120 m 0 ft / 0 m
30R 197 ft / 60 m 12,893 ft / 3,930 m 302.75° 299.99° Asphalt 1,000 ft / 305 m 0 ft / 0 m

OTBD

Details ICAO OTBD (DOH)
Name DOHA INTL
Region Qatar
Timezone Asia/Qatar (UTC+3.0)
Stats Elevation 35 ft / 11 m (AMSL)
Location 25.261056° 51.564999°
Runways 1
Magnetic Variation 2.481° E

METAR

OTBD 150600Z 19005KT CAVOK 21/12 Q1018 NOSIG

Decode

TAF

TAF OTBD 150501Z 1506/1612 22004KT 8000 NSC BECMG 1509/1511 15008KT BECMG 1601/1603 30005KT

Decode

Destination Runways

ID Width Length Bearing (true) Bearing (mag) Surface Threshold Offset Overrun Length
16 151 ft / 46 m 15,065 ft / 4,592 m 158.20° 155.72° Asphalt 2,460 ft / 750 m 98 ft / 30 m
34 151 ft / 46 m 15,065 ft / 4,592 m 338.21° 335.73° Asphalt 0 ft / 0 m 460 ft / 140 m

Approach Navaids

Runway Type Ident Frequency Range Bearing (true) Bearing (mag) Slope Elevation
34 Localiser IBD 109.50 MHz 18 nm / 33 km 338.32° 335.84° - 38 ft / 12 m (AMSL)
34 Glidescope IBD 109.50 MHz 10 nm / 19 km 338.21° 335.73° 3.00° 35 ft / 11 m (AMSL)
34 DME IBD 109.50 MHz 18 nm / 33 km - - - 35 ft / 11 m (AMSL)

Popular Alternatives